| time (UTC) | temp F | wind direction | speed knots | gust knots | rain 1hr in | rain 24hr in | rain mn in | humidity % | barometer mb |
| 20260509162002 | 51 | 230 | 3.5 | 5.2 | 0.07 | 0.28 | 0.28 | 97 | 1009.6 |
| 20260509161458 | 51 | 252 | 1.7 | 7.0 | 0.05 | 0.27 | 0.27 | 96 | 1009.6 |
| 20260509160953 | 51 | 240 | 3.5 | 3.5 | 0.05 | 0.27 | 0.27 | 96 | 1009.6 |
| 20260509160449 | 51 | 255 | 5.2 | 7.0 | 0.07 | 0.26 | 0.26 | 96 | 1009.6 |
| 20260509155944 | 51 | 257 | 2.6 | 6.1 | 0.00 | 0.26 | 0.26 | 95 | 1009.6 |
| 20260509155442 | 51 | 232 | 2.6 | 6.1 | 0.05 | 0.25 | 0.25 | 96 | 1009.6 |
| 20260509154938 | 51 | 207 | 1.7 | 3.5 | 0.05 | 0.25 | 0.25 | 96 | 1009.6 |
| 20260509154434 | 51 | 223 | 0.9 | 3.5 | 0.00 | 0.24 | 0.24 | 96 | 1009.6 |
| 20260509153932 | 51 | 219 | 2.6 | 3.5 | 0.07 | 0.24 | 0.24 | 96 | 1009.6 |
| 20260509153428 | 51 | 235 | 4.3 | 5.2 | 0.07 | 0.24 | 0.24 | 95 | 1009.6 |
| 20260509152926 | 51 | 266 | 2.6 | 3.5 | 0.05 | 0.23 | 0.23 | 95 | 1009.6 |
| 20260509152421 | 51 | 245 | 4.3 | 6.1 | 0.05 | 0.23 | 0.23 | 96 | 1009.6 |
| 20260509151919 | 50 | 251 | 3.5 | 3.5 | 0.00 | 0.22 | 0.22 | 96 | 1009.6 |
| 20260509151414 | 50 | 290 | 2.6 | 6.1 | 0.07 | 0.22 | 0.22 | 95 | 1009.6 |
| 20260509150913 | 50 | 252 | 2.6 | 6.1 | 0.07 | 0.22 | 0.22 | 96 | 1009.6 |
| 20260509150410 | 50 | 178 | 1.7 | 5.2 | 0.07 | 0.21 | 0.21 | 96 | 1009.6 |
| 20260509145908 | 50 | 239 | 3.5 | 7.8 | 0.12 | 0.21 | 0.21 | 96 | 1009.6 |
| 20260509145408 | 50 | 225 | 1.7 | 5.2 | 0.12 | 0.20 | 0.20 | 96 | 1009.6 |
| 20260509144904 | 50 | 226 | 2.6 | 5.2 | 0.12 | 0.19 | 0.19 | 96 | 1009.6 |
| 20260509144401 | 50 | 240 | 2.6 | 2.6 | 0.12 | 0.18 | 0.18 | 96 | 1009.9 |
| 20260509143858 | 50 | 247 | 2.6 | 5.2 | 0.07 | 0.17 | 0.17 | 96 | 1009.6 |
| 20260509143355 | 50 | 220 | 2.6 | 7.0 | 0.05 | 0.16 | 0.16 | 96 | 1009.9 |
| 20260509142851 | 50 | 262 | 2.6 | 5.2 | 0.05 | 0.16 | 0.16 | 96 | 1009.9 |
| 20260509142348 | 50 | 231 | 1.7 | 5.2 | 0.00 | 0.15 | 0.15 | 96 | 1009.9 |
| 20260509141843 | 50 | 236 | 6.1 | 7.0 | 0.00 | 0.15 | 0.15 | 95 | 1009.9 |
| 20260509141341 | 50 | 243 | 5.2 | 6.1 | 0.00 | 0.15 | 0.15 | 95 | 1009.9 |
| 20260509140837 | 50 | 259 | 3.5 | 5.2 | 0.00 | 0.15 | 0.15 | 95 | 1009.9 |
| 20260509140334 | 51 | 291 | 3.5 | 5.2 | 0.07 | 0.15 | 0.15 | 95 | 1009.9 |
| 20260509135832 | 51 | 273 | 4.3 | 6.1 | 0.05 | 0.14 | 0.14 | 95 | 1009.9 |
| 20260509135329 | 51 | 270 | 2.6 | 3.5 | 0.05 | 0.14 | 0.14 | 95 | 1009.6 |
| 20260509134827 | 51 | 273 | 5.2 | 7.0 | 0.00 | 0.13 | 0.13 | 94 | 1009.6 |
| 20260509134324 | 51 | 238 | 3.5 | 6.1 | 0.07 | 0.13 | 0.13 | 94 | 1009.9 |
| 20260509133820 | 50 | 223 | 1.7 | 5.2 | 0.07 | 0.13 | 0.13 | 95 | 1009.9 |
| 20260509133317 | 50 | 245 | 5.2 | 7.0 | 0.00 | 0.12 | 0.12 | 95 | 1009.9 |
| 20260509132816 | 50 | 252 | 3.5 | 6.1 | 0.05 | 0.12 | 0.12 | 95 | 1009.9 |
| 20260509132314 | 50 | 240 | 2.6 | 5.2 | 0.05 | 0.12 | 0.12 | 95 | 1009.9 |
| 20260509131810 | 50 | 261 | 2.6 | 3.5 | 0.07 | 0.11 | 0.11 | 95 | 1009.9 |
| 20260509131307 | 50 | 280 | 1.7 | 3.5 | 0.07 | 0.11 | 0.11 | 95 | 1010.3 |
| 20260509130804 | 49 | 240 | 3.5 | 7.8 | 0.00 | 0.10 | 0.10 | 95 | 1009.9 |
| 20260509130259 | 49 | 223 | 0.9 | 2.6 | 0.05 | 0.10 | 0.10 | 95 | 1009.9 |
| 20260509125756 | 49 | 212 | 1.7 | 6.1 | 0.00 | 0.10 | 0.10 | 95 | 1010.3 |
| 20260509125253 | 49 | 241 | 5.2 | 7.0 | 0.00 | 0.09 | 0.09 | 95 | 1010.3 |
| 20260509124749 | 49 | 177 | 1.7 | 2.6 | 0.07 | 0.09 | 0.09 | 95 | 1009.9 |
| 20260509124246 | 49 | 255 | 2.6 | 6.1 | 0.00 | 0.09 | 0.09 | 95 | 1009.9 |
| 20260509123744 | 49 | 291 | 2.6 | 5.2 | 0.07 | 0.08 | 0.08 | 95 | 1010.3 |
| 20260509123241 | 49 | 255 | 3.5 | 5.2 | 0.07 | 0.08 | 0.08 | 95 | 1010.3 |
| 20260509122736 | 49 | 258 | 3.5 | 5.2 | 0.00 | 0.07 | 0.07 | 95 | 1010.3 |
| 20260509122234 | 49 | 262 | 3.5 | 5.2 | 0.05 | 0.07 | 0.07 | 95 | 1010.3 |
| 20260509121731 | 49 | 258 | 2.6 | 7.0 | 0.05 | 0.07 | 0.07 | 94 | 1010.3 |
| 20260509121228 | 49 | 248 | 5.2 | 6.1 | 0.00 | 0.06 | 0.06 | 95 | 1010.3 |
| 20260509120726 | 49 | 211 | 2.6 | 5.2 | 0.00 | 0.06 | 0.06 | 94 | 1010.3 |
| 20260509120223 | 49 | 247 | 1.7 | 5.2 | 0.07 | 0.06 | 0.06 | 94 | 1010.3 |
| 20260509115721 | 49 | 188 | 1.7 | 2.6 | 0.07 | 0.06 | 0.06 | 94 | 1010.3 |
| 20260509115218 | 49 | 251 | 1.7 | 6.1 | 0.00 | 0.05 | 0.05 | 93 | 1010.3 |
| 20260509114717 | 49 | 249 | 1.7 | 2.6 | 0.05 | 0.05 | 0.05 | 93 | 1010.3 |
| 20260509114215 | 49 | 198 | 1.7 | 2.6 | 0.05 | 0.05 | 0.05 | 93 | 1010.3 |
| 20260509113713 | 49 | 214 | 1.7 | 2.6 | 0.00 | 0.04 | 0.04 | 93 | 1010.3 |
| 20260509113210 | 48 | 219 | 3.5 | 7.0 | 0.07 | 0.04 | 0.04 | 92 | 1010.3 |
| 20260509112707 | 48 | 233 | 2.6 | 3.5 | 0.00 | 0.03 | 0.03 | 92 | 1010.3 |
| 20260509112203 | 48 | 218 | 2.6 | 3.5 | 0.00 | 0.03 | 0.03 | 92 | 1010.3 |
| 20260509111701 | 48 | 267 | 4.3 | 5.2 | 0.00 | 0.03 | 0.03 | 93 | 1010.3 |
| 20260509111158 | 48 | 245 | 1.7 | 2.6 | 0.00 | 0.03 | 0.03 | 93 | 1010.3 |
| 20260509110655 | 48 | 195 | 1.7 | 2.6 | 0.00 | 0.03 | 0.03 | 92 | 1009.9 |
| 20260509110151 | 48 | 202 | 3.5 | 6.1 | 0.00 | 0.03 | 0.03 | 92 | 1010.3 |
| 20260509105650 | 48 | 281 | 4.3 | 5.2 | 0.00 | 0.03 | 0.03 | 92 | 1010.3 |
| 20260509105147 | 48 | 276 | 2.6 | 3.5 | 0.00 | 0.03 | 0.03 | 92 | 1009.9 |
| 20260509104644 | 48 | 221 | 2.6 | 5.2 | 0.00 | 0.03 | 0.03 | 92 | 1010.3 |
| 20260509104141 | 48 | 218 | 1.7 | 6.1 | 0.00 | 0.03 | 0.03 | 92 | 1010.3 |
| 20260509103639 | 48 | 232 | 3.5 | 3.5 | 0.00 | 0.03 | 0.03 | 92 | 1010.3 |
| 20260509103136 | 48 | 229 | 2.6 | 6.1 | 0.05 | 0.03 | 0.03 | 92 | 1010.3 |
| 20260509102634 | 48 | 196 | 2.6 | 2.6 | 0.00 | 0.02 | 0.02 | 92 | 1010.3 |
| 20260509102131 | 48 | 253 | 3.5 | 5.2 | 0.00 | 0.02 | 0.02 | 92 | 1010.3 |
| 20260509101627 | 48 | 201 | 0.9 | 2.6 | 0.00 | 0.02 | 0.02 | 92 | 1010.3 |
| 20260509101123 | 47 | 221 | 1.7 | 5.2 | 0.00 | 0.02 | 0.02 | 92 | 1010.3 |
| 20260509100621 | 47 | 194 | 1.7 | 5.2 | 0.00 | 0.02 | 0.02 | 93 | 1010.3 |
| 20260509100118 | 46 | 226 | 0.9 | 2.6 | 0.00 | 0.02 | 0.02 | 93 | 1010.7 |
| 20260509095614 | 46 | 211 | 1.7 | 2.6 | 0.00 | 0.02 | 0.02 | 94 | 1010.7 |
| 20260509095112 | 46 | 195 | 0.9 | 2.6 | 0.07 | 0.02 | 0.02 | 94 | 1010.7 |
| 20260509094608 | 46 | 177 | 0.0 | 1.7 | 0.00 | 0.02 | 0.02 | 94 | 1010.7 |
| 20260509094105 | 46 | 183 | 0.0 | 0.9 | 0.00 | 0.01 | 0.01 | 94 | 1010.7 |
| 20260509093604 | 46 | 207 | 0.9 | 1.7 | 0.00 | 0.01 | 0.01 | 94 | 1010.7 |
| 20260509093101 | 46 | 178 | 0.0 | 0.9 | 0.00 | 0.01 | 0.01 | 93 | 1010.7 |
| 20260509092558 | 46 | 204 | 3.5 | 5.2 | 0.00 | 0.01 | 0.01 | 93 | 1010.7 |
| 20260509092057 | 46 | 220 | 0.9 | 1.7 | 0.00 | 0.01 | 0.01 | 93 | 1010.7 |
| 20260509091554 | 46 | 177 | 0.0 | 1.7 | 0.00 | 0.01 | 0.01 | 94 | 1010.7 |
| 20260509091050 | 46 | 195 | 0.0 | 1.7 | 0.00 | 0.01 | 0.01 | 95 | 1010.3 |
| 20260509090548 | 46 | 239 | 0.0 | 0.9 | 0.00 | 0.01 | 0.01 | 95 | 1009.9 |
| 20260509090046 | 46 | 184 | 1.7 | 1.7 | 0.05 | 0.01 | 0.01 | 95 | 1009.9 |
| 20260509085542 | 46 | 191 | 1.7 | 1.7 | 0.05 | 0.01 | 0.01 | 96 | 1010.3 |
| 20260509085038 | 45 | 271 | 0.0 | 0.9 | 0.00 | 0.00 | 0.00 | 96 | 1009.9 |
| 20260509084536 | 45 | 211 | 0.0 | 0.9 | 0.00 | 0.00 | 0.00 | 96 | 1009.9 |
| 20260509084033 | 45 | 211 | 0.9 | 0.9 | 0.00 | 0.00 | 0.00 | 97 | 1009.9 |
| 20260509083530 | 45 | 169 | 0.0 | 0.0 | 0.00 | 0.00 | 0.00 | 97 | 1009.9 |
| 20260509083027 | 45 | 169 | 0.0 | 0.9 | 0.00 | 0.00 | 0.00 | 97 | 1009.9 |
| 20260509082524 | 45 | 168 | 0.0 | 0.0 | 0.00 | 0.00 | 0.00 | 97 | 1009.9 |
| 20260509082021 | 45 | 169 | 0.0 | 0.0 | 0.00 | 0.00 | 0.00 | 97 | 1009.6 |
| 20260509081519 | 45 | 157 | 0.0 | 0.0 | 0.00 | 0.00 | 0.00 | 97 | 1009.6 |
| 20260509081015 | 45 | 157 | 0.0 | 0.0 | 0.00 | 0.00 | 0.00 | 97 | 1009.6 |
| 20260509080513 | 45 | 157 | 0.0 | 0.0 | 0.00 | 0.00 | 0.00 | 97 | 1009.6 |
| 20260509080011 | 45 | 157 | 0.0 | 0.0 | 0.00 | 0.00 | 0.00 | 97 | 1009.6 |
| 20260509075508 | 45 | 157 | 0.0 | 0.0 | 0.00 | 0.00 | 0.00 | 97 | 1009.6 |
| 20260509075006 | 45 | 157 | 0.0 | 0.0 | 0.00 | 0.00 | 0.00 | 97 | 1009.6 |
| 20260509074503 | 45 | 157 | 0.0 | 0.9 | 0.00 | 0.00 | 0.00 | 97 | 1009.6 |
| 20260509073959 | 45 | 144 | 0.0 | 0.0 | 0.00 | 0.00 | 0.00 | 97 | 1009.6 |
| 20260509073455 | 45 | 144 | 0.0 | 0.0 | 0.00 | 0.00 | 0.00 | 97 | 1009.6 |
| 20260509072952 | 45 | 144 | 0.0 | 0.0 | 0.00 | 0.00 | 0.00 | 97 | 1009.6 |
| 20260509072449 | 45 | 144 | 0.0 | 0.9 | 0.00 | 0.00 | 0.00 | 97 | 1009.6 |
| 20260509071946 | 45 | 144 | 0.0 | 0.9 | 0.00 | 0.00 | 0.00 | 97 | 1009.6 |
| 20260509071442 | 45 | 144 | 0.0 | 0.0 | 0.00 | 0.00 | 0.00 | 97 | 1009.6 |
| 20260509070940 | 45 | 144 | 0.0 | 0.9 | 0.00 | 0.00 | 0.00 | 96 | 1009.6 |
| 20260509070437 | 45 | 144 | 0.0 | 0.0 | 0.00 | 0.00 | 0.00 | 96 | 1009.6 |
| 20260509065932 | 45 | 144 | 0.0 | 0.9 | 0.00 | 0.00 | 0.00 | 96 | 1009.6 |
| 20260509065428 | 45 | 144 | 0.0 | 0.9 | 0.00 | 0.00 | 0.00 | 96 | 1009.9 |
| 20260509064925 | 45 | 137 | 0.9 | 0.9 | 0.00 | 0.00 | 0.00 | 96 | 1009.9 |
| 20260509064423 | 45 | 142 | 0.0 | 0.0 | 0.00 | 0.00 | 0.00 | 95 | 1009.9 |
| 20260509063920 | 45 | 142 | 0.0 | 0.0 | 0.00 | 0.00 | 0.00 | 95 | 1010.3 |
| 20260509063416 | 46 | 142 | 0.0 | 0.0 | 0.00 | 0.00 | 0.00 | 95 | 1010.3 |
| 20260509062913 | 46 | 142 | 0.0 | 0.9 | 0.00 | 0.00 | 0.00 | 95 | 1010.3 |
| 20260509062410 | 46 | 125 | 0.9 | 0.9 | 0.00 | 0.00 | 0.00 | 95 | 1010.7 |
| 20260509061907 | 46 | 145 | 0.0 | 0.0 | 0.00 | 0.00 | 0.00 | 94 | 1010.7 |
| 20260509061405 | 46 | 145 | 0.0 | 0.0 | 0.00 | 0.00 | 0.00 | 94 | 1010.7 |
| 20260509060902 | 46 | 145 | 0.0 | 0.0 | 0.00 | 0.00 | 0.00 | 94 | 1010.7 |
| 20260509060359 | 46 | 144 | 0.0 | 0.9 | 0.00 | 0.00 | 0.00 | 94 | 1011.0 |
| 20260509055854 | 46 | 142 | 0.0 | 0.9 | 0.00 | 0.00 | 0.00 | 94 | 1010.7 |
| 20260509055350 | 46 | 147 | 0.0 | 0.0 | 0.00 | 0.00 | 0.00 | 94 | 1011.0 |
| 20260509054847 | 46 | 147 | 0.0 | 0.0 | 0.00 | 0.00 | 0.00 | 94 | 1011.0 |
| 20260509054344 | 46 | 147 | 0.0 | 0.0 | 0.00 | 0.00 | 0.00 | 94 | 1011.3 |
| 20260509053842 | 46 | 147 | 0.0 | 0.9 | 0.00 | 0.00 | 0.00 | 94 | 1011.3 |
| 20260509053339 | 46 | 147 | 0.0 | 0.0 | 0.00 | 0.00 | 0.00 | 94 | 1011.3 |
| 20260509052837 | 46 | 147 | 0.0 | 0.0 | 0.00 | 0.00 | 0.00 | 93 | 1011.3 |
| 20260509052334 | 46 | 147 | 0.0 | 0.0 | 0.00 | 0.00 | 0.00 | 92 | 1011.3 |
| 20260509051832 | 46 | 147 | 0.0 | 0.0 | 0.00 | 0.00 | 0.00 | 91 | 1011.0 |
| 20260509051330 | 47 | 147 | 0.0 | 0.0 | 0.00 | 0.00 | 0.00 | 91 | 1011.3 |
| 20260509050826 | 47 | 147 | 0.0 | 0.0 | 0.00 | 0.00 | 0.00 | 90 | 1011.3 |
| 20260509050323 | 47 | 90 | 0.0 | 0.0 | 0.00 | 0.00 | 0.00 | 89 | 1011.3 |
| 20260509045820 | 47 | 89 | 0.9 | 0.9 | 0.00 | 0.00 | 0.00 | 89 | 1011.3 |
| 20260509045317 | 47 | 127 | 0.0 | 0.9 | 0.00 | 0.00 | 0.00 | 89 | 1011.7 |
| 20260509044814 | 47 | 136 | 0.0 | 0.9 | 0.00 | 0.00 | 0.00 | 89 | 1011.3 |
| 20260509044312 | 47 | 126 | 0.9 | 1.7 | 0.00 | 0.00 | 0.00 | 90 | 1011.7 |
| 20260509043808 | 47 | 147 | 0.9 | 0.9 | 0.00 | 0.00 | 0.00 | 90 | 1011.3 |
| 20260509043304 | 47 | 136 | 0.9 | 0.9 | 0.00 | 0.00 | 0.00 | 90 | 1011.7 |
| 20260509042800 | 47 | 137 | 0.9 | 1.7 | 0.00 | 0.00 | 0.00 | 90 | 1011.7 |
| 20260509042257 | 47 | 148 | 0.0 | 0.9 | 0.00 | 0.00 | 0.00 | 91 | 1011.7 |
| 20260509041753 | 47 | 159 | 0.9 | 1.7 | 0.00 | 0.00 | 0.00 | 91 | 1011.7 |
| 20260509041250 | 47 | 151 | 1.7 | 1.7 | 0.00 | 0.00 | 0.00 | 91 | 1012.1 |
| 20260509040749 | 47 | 141 | 0.9 | 1.7 | 0.00 | 0.00 | 0.00 | 90 | 1012.1 |
| 20260509040246 | 47 | 125 | 0.0 | 0.9 | 0.00 | 0.00 | 0.00 | 89 | 1012.5 |
| 20260509035742 | 47 | 90 | 0.9 | 1.7 | 0.00 | 0.00 | 0.00 | 89 | 1012.5 |
| 20260509035239 | 47 | 144 | 0.0 | 0.9 | 0.00 | 0.00 | 0.00 | 89 | 1012.5 |
| 20260509034736 | 47 | 144 | 0.0 | 0.9 | 0.00 | 0.00 | 0.00 | 88 | 1012.5 |
| 20260509034234 | 47 | 134 | 0.0 | 1.7 | 0.00 | 0.00 | 0.00 | 88 | 1012.5 |
| 20260509033731 | 47 | 141 | 1.7 | 1.7 | 0.00 | 0.00 | 0.00 | 87 | 1012.5 |
| 20260509033228 | 48 | 94 | 0.9 | 0.9 | 0.00 | 0.00 | 0.00 | 87 | 1012.5 |
| 20260509032725 | 48 | 91 | 0.0 | 0.9 | 0.00 | 0.00 | 0.00 | 86 | 1012.5 |
| 20260509032222 | 48 | 127 | 1.7 | 1.7 | 0.00 | 0.00 | 0.00 | 86 | 1012.1 |
| 20260509031719 | 48 | 144 | 0.0 | 1.7 | 0.00 | 0.00 | 0.00 | 86 | 1012.1 |
| 20260509031217 | 48 | 120 | 1.7 | 2.6 | 0.00 | 0.00 | 0.00 | 85 | 1012.1 |
| 20260509030714 | 48 | 142 | 1.7 | 1.7 | 0.00 | 0.00 | 0.00 | 85 | 1012.1 |
| 20260509030211 | 48 | 90 | 1.7 | 2.6 | 0.00 | 0.00 | 0.00 | 84 | 1012.5 |
| 20260509025708 | 48 | 128 | 0.9 | 1.7 | 0.00 | 0.00 | 0.00 | 85 | 1012.1 |
| 20260509025204 | 48 | 172 | 0.9 | 0.9 | 0.00 | 0.00 | 0.00 | 86 | 1012.1 |
| 20260509024659 | 48 | 152 | 0.9 | 1.7 | 0.00 | 0.00 | 0.00 | 84 | 1012.1 |
| 20260509024155 | 48 | 70 | 1.7 | 1.7 | 0.00 | 0.00 | 0.00 | 84 | 1012.1 |
| 20260509023653 | 48 | 135 | 0.9 | 1.7 | 0.00 | 0.00 | 0.00 | 84 | 1012.1 |
| 20260509023150 | 48 | 137 | 0.9 | 0.9 | 0.00 | 0.00 | 0.00 | 82 | 1012.1 |
| 20260509022646 | 48 | 137 | 0.0 | 0.9 | 0.00 | 0.00 | 0.00 | 83 | 1012.1 |
| 20260509022144 | 48 | 132 | 0.9 | 0.9 | 0.00 | 0.00 | 0.00 | 82 | 1011.7 |
| 20260509021641 | 48 | 134 | 0.0 | 0.0 | 0.00 | 0.00 | 0.00 | 81 | 1011.7 |
| 20260509021138 | 48 | 134 | 0.0 | 0.0 | 0.00 | 0.00 | 0.00 | 79 | 1011.7 |
| 20260509020636 | 48 | 76 | 0.0 | 0.9 | 0.00 | 0.00 | 0.00 | 80 | 1011.7 |
| 20260509020133 | 48 | 76 | 0.0 | 0.9 | 0.00 | 0.00 | 0.00 | 78 | 1011.3 |
| 20260509015632 | 48 | 76 | 0.9 | 0.9 | 0.00 | 0.00 | 0.00 | 78 | 1011.7 |
| 20260509015129 | 48 | 76 | 0.9 | 0.9 | 0.00 | 0.00 | 0.00 | 79 | 1011.7 |
| 20260509014625 | 48 | 97 | 0.9 | 1.7 | 0.00 | 0.00 | 0.00 | 80 | 1011.7 |
| 20260509014121 | 48 | 163 | 0.0 | 0.9 | 0.00 | 0.00 | 0.00 | 79 | 1011.3 |
| 20260509013619 | 48 | 154 | 0.0 | 0.9 | 0.00 | 0.00 | 0.00 | 81 | 1011.3 |
| 20260509013114 | 48 | 179 | 0.9 | 1.7 | 0.00 | 0.00 | 0.00 | 82 | 1011.3 |
| 20260509012611 | 48 | 160 | 0.0 | 0.9 | 0.00 | 0.00 | 0.00 | 83 | 1011.3 |
| 20260509012108 | 48 | 159 | 0.9 | 1.7 | 0.00 | 0.00 | 0.00 | 83 | 1011.3 |
| 20260509011606 | 48 | 155 | 0.0 | 0.0 | 0.00 | 0.00 | 0.00 | 84 | 1011.7 |
| 20260509011103 | 48 | 153 | 0.0 | 0.0 | 0.00 | 0.00 | 0.00 | 82 | 1011.7 |
| 20260509010601 | 48 | 154 | 0.0 | 0.9 | 0.00 | 0.00 | 0.00 | 83 | 1011.7 |
| 20260509010057 | 49 | 146 | 0.0 | 0.9 | 0.00 | 0.00 | 0.00 | 82 | 1011.7 |
| 20260509005555 | 49 | 134 | 1.7 | 1.7 | 0.00 | 0.00 | 0.00 | 81 | 1011.7 |
| 20260509005050 | 49 | 171 | 0.9 | 0.9 | 0.00 | 0.00 | 0.00 | 80 | 1011.3 |
| 20260509004547 | 49 | 145 | 0.0 | 0.9 | 0.00 | 0.00 | 0.00 | 77 | 1011.7 |
| 20260509004044 | 49 | 129 | 0.9 | 0.9 | 0.00 | 0.00 | 0.00 | 77 | 1011.7 |
| 20260509003542 | 49 | 158 | 0.0 | 0.0 | 0.00 | 0.00 | 0.00 | 76 | 1011.7 |
| 20260509003039 | 49 | 158 | 0.0 | 0.0 | 0.00 | 0.00 | 0.00 | 76 | 1011.3 |
| 20260509002537 | 50 | 150 | 0.0 | 0.0 | 0.00 | 0.00 | 0.00 | 75 | 1011.3 |
| 20260509002034 | 50 | 139 | 0.0 | 0.9 | 0.00 | 0.00 | 0.00 | 72 | 1011.3 |
| 20260509001531 | 50 | 138 | 0.0 | 0.9 | 0.00 | 0.00 | 0.00 | 72 | 1011.3 |
| 20260509001027 | 50 | 149 | 0.0 | 0.0 | 0.00 | 0.00 | 0.00 | 74 | 1011.3 |
| 20260509000526 | 50 | 157 | 0.0 | 0.9 | 0.00 | 0.00 | 0.00 | 73 | 1011.3 |
| 20260509000021 | 51 | 150 | 0.0 | 0.9 | 0.00 | 0.00 | 0.00 | 70 | 1011.3 |
| 20260508235519 | 51 | 115 | 0.9 | 0.9 | 0.00 | 0.00 | 0.00 | 72 | 1011.3 |
| 20260508235015 | 51 | 164 | 0.0 | 0.9 | 0.00 | 0.00 | 0.00 | 70 | 1011.3 |
| 20260508234513 | 51 | 164 | 0.9 | 1.7 | 0.00 | 0.00 | 0.00 | 70 | 1011.3 |
| 20260508234010 | 51 | 145 | 0.0 | 0.9 | 0.00 | 0.00 | 0.00 | 68 | 1011.3 |
| 20260508233509 | 52 | 146 | 0.0 | 0.9 | 0.00 | 0.00 | 0.00 | 68 | 1011.3 |
| 20260508233006 | 52 | 178 | 0.0 | 0.9 | 0.00 | 0.00 | 0.00 | 68 | 1011.3 |
| 20260508232503 | 52 | 164 | 0.0 | 0.9 | 0.00 | 0.00 | 0.00 | 68 | 1011.3 |
| 20260508232000 | 53 | 180 | 0.0 | 0.9 | 0.00 | 0.00 | 0.00 | 66 | 1011.3 |
| 20260508231457 | 53 | 135 | 0.0 | 0.0 | 0.00 | 0.00 | 0.00 | 67 | 1011.3 |
| 20260508230954 | 53 | 314 | 0.9 | 1.7 | 0.00 | 0.00 | 0.00 | 65 | 1011.3 |
| 20260508230451 | 53 | 335 | 2.6 | 2.6 | 0.00 | 0.00 | 0.00 | 63 | 1011.3 |
| 20260508225947 | 53 | 166 | 0.9 | 0.9 | 0.00 | 0.00 | 0.00 | 66 | 1011.3 |
| 20260508225444 | 53 | 192 | 0.0 | 0.9 | 0.00 | 0.00 | 0.00 | 65 | 1011.3 |
| 20260508224942 | 54 | 155 | 0.0 | 0.0 | 0.00 | 0.00 | 0.00 | 66 | 1011.3 |
| 20260508224439 | 53 | 152 | 0.0 | 0.9 | 0.00 | 0.00 | 0.00 | 66 | 1011.3 |
| 20260508223936 | 53 | 192 | 0.9 | 1.7 | 0.00 | 0.00 | 0.00 | 65 | 1011.3 |
| 20260508223434 | 53 | 211 | 0.9 | 1.7 | 0.00 | 0.00 | 0.00 | 66 | 1011.3 |
| 20260508222931 | 53 | 227 | 1.7 | 3.5 | 0.00 | 0.00 | 0.00 | 66 | 1011.3 |
| 20260508222429 | 53 | 202 | 1.7 | 2.6 | 0.00 | 0.00 | 0.00 | 68 | 1011.3 |
| 20260508221925 | 53 | 267 | 1.7 | 3.5 | 0.00 | 0.00 | 0.00 | 65 | 1011.3 |
| 20260508221421 | 53 | 240 | 2.6 | 2.6 | 0.00 | 0.00 | 0.00 | 66 | 1011.3 |
| 20260508220917 | 53 | 201 | 1.7 | 2.6 | 0.00 | 0.00 | 0.00 | 68 | 1011.3 |
| 20260508220414 | 53 | 242 | 1.7 | 5.2 | 0.00 | 0.00 | 0.00 | 67 | 1011.3 |
| 20260508215910 | 53 | 220 | 0.9 | 1.7 | 0.00 | 0.00 | 0.00 | 66 | 1011.3 |
| 20260508215407 | 53 | 192 | 0.9 | 1.7 | 0.00 | 0.00 | 0.00 | 66 | 1011.3 |
| 20260508214903 | 53 | 249 | 1.7 | 6.1 | 0.00 | 0.00 | 0.00 | 66 | 1011.3 |
| 20260508214402 | 53 | 252 | 0.9 | 2.6 | 0.00 | 0.00 | 0.00 | 68 | 1011.3 |
| 20260508213857 | 52 | 285 | 2.6 | 3.5 | 0.00 | 0.00 | 0.00 | 68 | 1011.7 |
| 20260508213355 | 52 | 187 | 0.9 | 2.6 | 0.00 | 0.00 | 0.00 | 69 | 1011.7 |
| 20260508212850 | 52 | 292 | 1.7 | 2.6 | 0.00 | 0.00 | 0.00 | 68 | 1011.7 |
| 20260508212347 | 52 | 263 | 1.7 | 2.6 | 0.00 | 0.00 | 0.00 | 68 | 1011.7 |
| 20260508211843 | 53 | 213 | 2.6 | 5.2 | 0.00 | 0.00 | 0.00 | 67 | 1011.7 |
| 20260508211339 | 53 | 344 | 3.5 | 5.2 | 0.00 | 0.00 | 0.00 | 66 | 1011.7 |
| 20260508210836 | 53 | 228 | 2.6 | 5.2 | 0.00 | 0.00 | 0.00 | 67 | 1011.7 |
| 20260508210333 | 54 | 268 | 3.5 | 6.1 | 0.00 | 0.00 | 0.00 | 63 | 1011.7 |
| 20260508205830 | 53 | 305 | 3.5 | 5.2 | 0.00 | 0.00 | 0.00 | 65 | 1011.7 |
| 20260508205326 | 53 | 293 | 6.1 | 9.6 | 0.00 | 0.00 | 0.00 | 66 | 1011.3 |
| 20260508204822 | 53 | 171 | 2.6 | 6.1 | 0.00 | 0.00 | 0.00 | 67 | 1011.7 |
| 20260508204319 | 53 | 288 | 3.5 | 8.7 | 0.00 | 0.00 | 0.00 | 65 | 1012.1 |
| 20260508203815 | 54 | 269 | 3.5 | 13.0 | 0.00 | 0.00 | 0.00 | 64 | 1012.1 |
| 20260508203312 | 54 | 345 | 1.7 | 2.6 | 0.00 | 0.00 | 0.00 | 65 | 1012.1 |
| 20260508202807 | 55 | 201 | 2.6 | 6.1 | 0.00 | 0.00 | 0.00 | 61 | 1011.7 |
| 20260508202307 | 55 | 173 | 1.7 | 6.1 | 0.00 | 0.00 | 0.00 | 61 | 1012.1 |
| 20260508201802 | 54 | 299 | 2.6 | 5.2 | 0.00 | 0.00 | 0.00 | 62 | 1011.7 |
| 20260508201259 | 55 | 321 | 3.5 | 7.8 | 0.00 | 0.00 | 0.00 | 60 | 1012.1 |
| 20260508200755 | 55 | 322 | 3.5 | 6.1 | 0.00 | 0.00 | 0.00 | 60 | 1011.7 |
| 20260508200252 | 55 | 286 | 4.3 | 12.2 | 0.00 | 0.00 | 0.00 | 59 | 1011.7 |
| 20260508195748 | 55 | 261 | 2.6 | 6.1 | 0.00 | 0.00 | 0.00 | 61 | 1011.7 |
| 20260508195244 | 55 | 230 | 3.5 | 8.7 | 0.00 | 0.00 | 0.00 | 59 | 1011.7 |
| 20260508194741 | 55 | 260 | 6.1 | 11.3 | 0.00 | 0.00 | 0.00 | 59 | 1011.7 |
| 20260508194238 | 55 | 287 | 6.1 | 7.8 | 0.00 | 0.00 | 0.00 | 58 | 1011.7 |
| 20260508193735 | 55 | 305 | 3.5 | 7.0 | 0.00 | 0.00 | 0.00 | 62 | 1012.1 |
| 20260508193231 | 54 | 167 | 2.6 | 3.5 | 0.00 | 0.00 | 0.00 | 63 | 1012.1 |
| 20260508192728 | 54 | 286 | 3.5 | 9.6 | 0.00 | 0.00 | 0.00 | 61 | 1012.1 |
| 20260508192225 | 53 | 311 | 3.5 | 6.1 | 0.00 | 0.00 | 0.00 | 64 | 1012.1 |
| 20260508191722 | 53 | 269 | 3.5 | 7.0 | 0.00 | 0.00 | 0.00 | 64 | 1012.5 |
| 20260508191219 | 53 | 244 | 0.9 | 5.2 | 0.00 | 0.00 | 0.00 | 67 | 1012.5 |
| 20260508190716 | 54 | 261 | 4.3 | 8.7 | 0.00 | 0.00 | 0.00 | 62 | 1012.1 |
| 20260508190213 | 54 | 292 | 7.0 | 8.7 | 0.00 | 0.00 | 0.00 | 62 | 1012.1 |
| 20260508185709 | 55 | 247 | 9.6 | 13.0 | 0.00 | 0.00 | 0.00 | 61 | 1012.1 |
| 20260508185208 | 56 | 307 | 3.5 | 13.9 | 0.00 | 0.00 | 0.00 | 56 | 1012.1 |
| 20260508184704 | 57 | 277 | 7.0 | 14.8 | 0.00 | 0.00 | 0.00 | 52 | 1012.1 |
| 20260508184201 | 58 | 321 | 2.6 | 6.1 | 0.00 | 0.00 | 0.00 | 51 | 1011.7 |
| 20260508183658 | 59 | 244 | 3.5 | 7.0 | 0.00 | 0.00 | 0.00 | 52 | 1011.7 |
| 20260508183153 | 58 | 134 | 1.7 | 7.8 | 0.00 | 0.00 | 0.00 | 52 | 1011.7 |
| 20260508182644 | 56 | 304 | 2.6 | 5.2 | 0.00 | 0.00 | 0.00 | 53 | 1011.7 |
| 20260508182141 | 56 | 322 | 1.7 | 7.0 | 0.00 | 0.00 | 0.00 | 56 | 1011.7 |
| 20260508181637 | 55 | 308 | 3.5 | 7.0 | 0.00 | 0.00 | 0.00 | 56 | 1012.1 |
| 20260508181134 | 55 | 236 | 0.9 | 5.2 | 0.00 | 0.00 | 0.00 | 58 | 1012.1 |
| 20260508180631 | 54 | 232 | 4.3 | 13.9 | 0.00 | 0.00 | 0.00 | 59 | 1012.1 |
| 20260508180128 | 56 | 178 | 2.6 | 7.8 | 0.00 | 0.00 | 0.00 | 59 | 1012.1 |
| 20260508175624 | 57 | 301 | 7.0 | 8.7 | 0.00 | 0.00 | 0.00 | 50 | 1012.1 |
| 20260508175121 | 57 | 300 | 2.6 | 8.7 | 0.00 | 0.00 | 0.00 | 50 | 1012.1 |
| 20260508174619 | 56 | 237 | 1.7 | 3.5 | 0.00 | 0.00 | 0.00 | 49 | 1012.1 |
| 20260508174115 | 57 | 286 | 5.2 | 19.1 | 0.00 | 0.00 | 0.00 | 46 | 1012.1 |
| 20260508173612 | 59 | 249 | 4.3 | 8.7 | 0.00 | 0.00 | 0.00 | 49 | 1012.1 |
| 20260508173108 | 61 | 216 | 3.5 | 12.2 | 0.00 | 0.00 | 0.00 | 44 | 1012.1 |
| 20260508172606 | 59 | 318 | 4.3 | 8.7 | 0.00 | 0.00 | 0.00 | 46 | 1012.5 |
| 20260508172102 | 59 | 352 | 6.1 | 9.6 | 0.00 | 0.00 | 0.00 | 43 | 1012.5 |
| 20260508171559 | 59 | 313 | 5.2 | 7.0 | 0.00 | 0.00 | 0.00 | 44 | 1012.5 |
| 20260508171055 | 59 | 244 | 7.8 | 16.5 | 0.00 | 0.00 | 0.00 | 45 | 1012.5 |
| 20260508170553 | 59 | 287 | 3.5 | 13.9 | 0.00 | 0.00 | 0.00 | 47 | 1012.5 |
| 20260508170050 | 58 | 347 | 4.3 | 8.7 | 0.00 | 0.00 | 0.00 | 47 | 1012.5 |
| 20260508165547 | 59 | 258 | 4.3 | 12.2 | 0.00 | 0.00 | 0.00 | 48 | 1012.5 |
| 20260508165044 | 59 | 229 | 3.5 | 9.6 | 0.00 | 0.00 | 0.00 | 48 | 1012.5 |
| 20260508164540 | 60 | 221 | 2.6 | 13.0 | 0.00 | 0.00 | 0.00 | 46 | 1012.5 |
| 20260508164037 | 60 | 324 | 4.3 | 7.8 | 0.00 | 0.00 | 0.00 | 45 | 1012.5 |
| 20260508163535 | 59 | 348 | 2.6 | 6.1 | 0.00 | 0.00 | 0.00 | 49 | 1012.5 |
| 20260508163031 | 60 | 252 | 10.4 | 13.0 | 0.00 | 0.00 | 0.00 | 45 | 1012.5 |
| 20260508162528 | 58 | 316 | 0.9 | 7.0 | 0.00 | 0.00 | 0.00 | 51 | 1012.5 |